Location: Ernsee
(50.8780°N, 12.0389°E)
Time: 21:51:11
(UTC+00:00)

ADEOS Rocket - Pass Details

Date: 20 January 2020
Orbit: 859 x 1306 km, 98.7° (Epoch: 27 February)

Event Time Altitude Azimuth Distance (km) Brightness Sun altitude
Rises 04:37:09 0° 147° (SSE) 3,431 6.4 -22.7°
Reaches altitude 10° 04:39:32 10° 143° (SE) 2,493 5.7 -22.3°
Maximum altitude 04:44:50 54° 67° (ENE) 1,054 3.4 -21.4°
Drops below altitude 10° 04:50:22 10° 352° (N) 2,601 5.1 -20.6°
Sets 04:52:54 0° 348° (NNW) 3,592 5.8 -20.2°
